Regional Weather Roundup
Issued by NWS

Home | Current Version | Previous Version | Text Only | Print | Product List | Glossary On
Versions: 1 2 3 4 5 6 7 8 9 10 11 12 13 14 15 16 17 18 19 20 21 22 23 24 25 26 27 28 29 30 31 32 33 34 35 36 37 38 39 40 41 42 43 44 45 46 47 48 49 50
464
ASUS44 KLIX 221205
RWRLA
LOUISIANA WEATHER ROUNDUP
NATIONAL WEATHER SERVICE NEW ORLEANS LA
600 AM CST MON DEC 22 2014

NOTE: "FAIR" INDICATES FEW OR NO CLOUDS BELOW 12,000 FEET WITH NO
      SIGNIFICANT WEATHER AND/OR OBSTRUCTIONS TO VISIBILITY.
      SKY/WX - SKY CONDITION AND SIGNIFICANT WEATHER.
      TMP - AIR TEMPERATURE.    DP   - DEWPOINT TEMPERATURE.
      RH  - RELATIVE HUMIDITY.  PRES - PRESSURE.
      HX  - HEAT INDEX.         WCI  - WIND CHILL INDEX.

*  THESE STATIONS ARE NOT NWS OR FAA STATIONS AND ARE NOT UNDER
   NWS QUALITY CONTROL.

LAZ040-048-061>063-065-066-069-221300-
SOUTHEAST LOUISIANA

CITY           SKY/WX    TMP DP  RH WIND       PRES   REMARKS
N.O. AUDUBON     N/A     60  60 100 MISG        N/A
6HR MIN TEMP:  58; 6HR MAX TEMP:  60; 6HR PCP:  0.02;

N.O. INTL ARPT MOCLDY    58  56  93 E3        29.85F FOG
6HR MIN TEMP:  57; 6HR MAX TEMP:  58;

N.O. LAKEFRONT LGT RAIN  59  56  89 E8        29.86F FOG
6HR MIN TEMP:  58; 6HR MAX TEMP:  59; 6HR PCP:  0.02;

N.O. DOWNTOWN* CLOUDY    59  55  88 E8        29.86F
6HR MIN TEMP:  57; 6HR MAX TEMP:  59; 6HR PCP:  0.04;

SLIDELL        CLOUDY    58  56  93 CALM      29.86R FOG
6HR MIN TEMP:  55; 6HR MAX TEMP:  58; 6HR PCP: TRACE;

BATON ROUGE    FOG       54  53  97 CALM      29.85S VSB 1/4
6HR MIN TEMP:  52; 6HR MAX TEMP:  54;

BOOTHVILLE     CLOUDY    63  62  97 SE5       29.86S
6HR MIN TEMP:  57; 6HR MAX TEMP:  63; 6HR PCP:  0.02;

BELLE CHASSE   CLOUDY    59  58  96 NE5       29.85F FOG
6HR MIN TEMP:  58; 6HR MAX TEMP:  60; 6HR PCP:  0.12;

BOGALUSA*      FOG       57  55  91 SE3       29.88S VSB 1/4
6HR MIN TEMP:  55; 6HR MAX TEMP:  57;

GALLIANO*      CLOUDY    55  54  99 MISG      29.85S FOG
6HR MIN TEMP:  55; 6HR MAX TEMP:  58; 6HR PCP:  0.05;

NEW ROADS*     FOG       54  53  97 CALM      29.84F VSB 1/2
6HR MIN TEMP:  52; 6HR MAX TEMP:  54;

GONZALES*      FOG       57  57 100 CALM      29.85S VSB 1
6HR MIN TEMP:  55; 6HR MAX TEMP:  57;

HAMMOND*       NOT AVBL
HOUMA*         CLOUDY    57  57 100 CALM      29.84S
PORT FOURCHON* CLOUDY    63  63 100 E7        29.86F FOG

$$

LAZ041-044-053-054-221300-
SOUTHWEST LOUISIANA

CITY           SKY/WX    TMP DP  RH WIND       PRES   REMARKS
LAKE CHARLES   FOG       53  53 100 SE7       29.79F VSB 1/2
6HR MIN TEMP:  51; 6HR MAX TEMP:  53;

LAFAYETTE      FOG       52  51  97 VRB3      29.83F VSB 1/2
6HR MIN TEMP:  50; 6HR MAX TEMP:  52;

PATTERSON      CLOUDY    55  54  94 CALM      29.85S
6HR MIN TEMP:  54; 6HR MAX TEMP:  55;

SALT POINT       N/A     59  56  89 CALM      29.83R
6HR MIN TEMP:  57; 6HR MAX TEMP:  59;

NEW IBERIA     FOG       54  53  97 E3        29.84S VSB 1/2
6HR MIN TEMP:  51; 6HR MAX TEMP:  54; 6HR PCP: TRACE;

CHENAULT AIRPK CLOUDY    54  54 100 E6        29.90  FOG

$$

LAZ027-028-221300-
CENTRAL LOUISIANA

CITY           SKY/WX    TMP DP  RH WIND       PRES   REMARKS
FORT POLK      FOG       51  50  98 S8        29.79F VSB 1/2
6HR MIN TEMP:  49; 6HR MAX TEMP:  51; 6HR PCP:  0.01;

ALEXANDRIA INT FOG       51  51 100 SE6       29.80S VSB 1/2
6HR MIN TEMP:  49; 6HR MAX TEMP:  51;

ALEXANDRIA     CLOUDY    50  50 100 S5        29.81F
6HR MIN TEMP:  48; 6HR MAX TEMP:  50;


$$

LAZ001-002-221300-
NORTHWEST LOUISIANA

CITY           SKY/WX    TMP DP  RH WIND       PRES   REMARKS
SHREVEPORT     CLOUDY    51  49  92 S10       29.73F
6HR MIN TEMP:  48; 6HR MAX TEMP:  51;

BARKSDALE AFB  NOT AVBL
DTN SHREVEPORT CLOUDY    50  47  89 S10       29.74F
6HR MIN TEMP:  48; 6HR MAX TEMP:  50;


$$

LAZ014-016-221300-
NORTHEAST LOUISIANA

CITY           SKY/WX    TMP DP  RH WIND       PRES   REMARKS
MONROE         FOG       49  49 100 S7        29.82F VSB 1/2
6HR MIN TEMP:  45; 6HR MAX TEMP:  49;

TALLULAH       CLOUDY    52  50  93 S7        29.83F
6HR MIN TEMP:  47; 6HR MAX TEMP:  52;


$$




USA.gov is the U.S. government's official web portal to all federal, state and local government web resources and services.